DW2174 Weather Reports


time (UTC)temp
F
wind
direction
speed
knots
gust
knots
rain 1hr
in
rain 24hr
in
rain mn
in
humidity
%
barometer
mb
20260901124526 37 13 0.0 3.5 0.00 0.01 0.00 79 1007.6
20260901123035 37 15 1.7 3.5 0.00 0.01 0.00 78 1007.4
20260901121525 38 18 0.0 3.5 0.00 0.01 0.00 78 1007.2
20260901120024 37 355 1.7 7.0 0.00 0.01 0.00 79 1007.1
20260901114522 37 9 0.9 2.6 0.00 0.01 0.00 80 1007.1
20260901113023 37 9 0.9 3.5 0.00 0.01 0.00 81 1007.1
20260901111523 37 5 0.0 3.5 0.00 0.01 0.00 81 1007.3
20260901110022 36 5 1.7 3.5 0.00 0.01 0.00 80 1007.3
20260901104527 37 9 1.7 3.5 0.00 0.01 0.00 80 1007.4
20260901103017 38 9 0.0 2.6 0.00 0.01 0.00 79 1007.4
20260901101513 38 9 0.0 3.5 0.00 0.01 0.00 76 1007.3
20260901100009 41 30 0.9 3.5 0.00 0.01 0.00 72 1007.3
20260901094507 43 31 0.0 0.9 0.00 0.01 0.00 69 1007.2
20260901093006 44 31 0.0 0.9 0.00 0.01 0.00 68 1007.3
20260901091504 44 31 0.0 1.7 0.00 0.01 0.00 69 1007.1
20260901090006 44 40 0.0 2.6 0.00 0.01 0.00 71 1006.8
20260901084600 44 40 0.0 4.3 0.00 0.01 0.00 68 1006.7
20260901083055 42 360 0.9 9.6 0.00 0.01 0.00 71 1006.3
20260901081554 42 9 1.7 5.2 0.00 0.01 0.00 73 1006.1
20260901080058 43 350 2.6 7.8 0.00 0.01 0.00 72 1005.9
20260901074551 44 13 2.6 11.3 0.00 0.01 0.01 71 1005.4
20260901073048 44 5 2.6 9.6 0.00 0.01 0.01 69 1005.4
20260901071548 45 24 2.6 9.6 0.00 0.01 0.01 68 1005.3
20260901070047 45 5 1.7 11.3 0.00 0.01 0.01 67 1005.2
20260901064546 45 317 0.9 9.6 0.00 0.01 0.01 68 1005.2
20260901063048 44 360 5.2 10.4 0.00 0.01 0.01 69 1005.3
20260901061546 44 347 1.7 7.0 0.00 0.01 0.01 70 1005.2
20260901060044 44 30 1.7 7.8 0.00 0.01 0.01 70 1004.9
20260901054543 44 329 2.6 7.8 0.00 0.01 0.01 70 1004.7
20260901053107 44 360 1.7 5.2 0.00 0.01 0.01 72 1004.7
20260901051602 45 349 1.7 5.2 0.00 0.01 0.01 72 1004.5
20260901050042 45 355 1.7 7.0 0.00 0.01 0.01 71 1004.7
20260901044541 47 336 0.9 7.0 0.00 0.01 0.01 68 1004.4
20260901043041 48 320 1.7 8.7 0.00 0.01 0.01 64 1004.5
20260901041553 50 325 0.0 10.4 0.00 0.01 0.01 61 1004.4
20260901040041 50 323 2.6 7.8 0.00 0.01 0.01 59 1004.2
20260901034539 51 313 0.9 9.6 0.00 0.01 0.01 57 1004.2
20260901033039 51 306 2.6 9.6 0.00 0.01 0.01 56 1004.0
20260901031552 51 302 3.5 12.2 0.00 0.01 0.01 55 1004.0
20260901030137 51 311 5.2 12.2 0.00 0.01 0.01 53 1003.8
20260901024537 52 342 2.6 12.2 0.00 0.01 0.01 52 1003.8
20260901023037 52 350 5.2 12.2 0.00 0.01 0.01 52 1003.7
20260901021536 52 306 5.2 13.0 0.00 0.01 0.01 52 1003.7
20260901020135 52 5 4.3 12.2 0.00 0.01 0.01 52 1003.6
20260901014543 52 313 4.3 12.2 0.00 0.01 0.01 50 1003.4
20260901013033 52 260 5.2 13.0 0.00 0.01 0.01 50 1003.4
20260901011532 52 343 0.9 13.9 0.00 0.01 0.01 52 1003.3
20260901010032 52 281 5.2 12.2 0.00 0.01 0.01 52 1003.2
20260901004531 52 286 5.2 15.6 0.00 0.01 0.01 49 1003.1
20260901003032 52 355 3.5 17.4 0.00 0.01 0.01 51 1003.0
20260901001536 52 360 5.2 15.6 0.00 0.01 0.01 52 1003.1
20260901000027 51 308 5.2 15.6 0.00 0.01 0.01 56 1002.9
20260831234525 51 311 0.9 11.3 0.00 0.01 0.01 65 1003.2
20260831233023 50 332 1.7 11.3 0.00 0.01 0.01 66 1003.2
20260831231522 49 360 4.3 11.3 0.00 0.01 0.01 64 1003.2
20260831230021 50 10 4.3 15.6 0.00 0.01 0.01 63 1003.3
20260831224520 49 340 7.0 20.9 0.00 0.01 0.01 62 1002.9
20260831223019 47 350 9.6 20.0 0.00 0.01 0.01 64 1002.8
20260831221517 48 5 5.2 11.3 0.00 0.01 0.01 68 1002.6
20260831220017 46 26 6.1 14.8 0.00 0.01 0.01 75 1002.7
20260831214522 48 37 5.2 22.6 0.00 0.01 0.01 64 1002.6
20260831213015 49 319 7.8 14.8 0.00 0.01 0.01 51 1001.9
20260831211517 49 355 6.1 21.7 0.00 0.01 0.01 50 1001.8
20260831210009 48 360 6.1 20.0 0.00 0.01 0.01 50 1001.7
20260831204514 48 249 6.1 20.0 0.00 0.01 0.01 54 1001.8
20260831203004 48 251 5.2 17.4 0.00 0.01 0.01 58 1001.7
20260831201502 48 321 4.3 17.4 0.00 0.01 0.01 62 1001.7
20260831200101 47 308 4.3 16.5 0.00 0.01 0.01 61 1001.5
20260831194604 47 348 5.2 15.6 0.00 0.01 0.01 62 1001.2
20260831193054 47 338 5.2 15.6 0.00 0.01 0.01 61 1001.2
20260831191551 46 333 4.3 17.4 0.00 0.01 0.01 62 1001.4
20260831190048 46 258 7.0 16.5 0.00 0.01 0.01 62 1001.4
20260831184543 45 286 7.8 18.2 0.00 0.01 0.01 61 1001.3
20260831183040 45 326 7.0 17.4 0.00 0.01 0.01 61 1001.2
20260831181537 45 282 7.8 22.6 0.00 0.01 0.01 60 1000.9
20260831180031 45 269 5.2 19.1 0.00 0.01 0.01 64 1000.9
20260831174530 44 265 7.0 18.2 0.00 0.01 0.01 65 1000.9
20260831173025 44 292 6.1 20.0 0.01 0.01 0.01 68 1000.9
20260831171524 44 355 4.3 14.8 0.01 0.01 0.01 71 1001.1
20260831170019 44 315 6.1 19.1 0.01 0.01 0.01 71 1001.4
20260831164518 43 255 5.2 26.1 0.01 0.01 0.01 71 1001.4
20260831163008 43 286 6.1 13.0 0.00 0.00 0.00 73 1001.8
20260831161503 42 281 3.5 11.3 0.00 0.00 0.00 74 1002.1
20260831160104 43 302 5.2 13.9 0.00 0.00 0.00 71 1002.2
20260831154558 43 324 3.5 11.3 0.00 0.00 0.00 72 1002.2
20260831153055 43 296 2.6 15.6 0.00 0.00 0.00 72 1002.4
20260831151557 42 337 5.2 13.9 0.00 0.00 0.00 79 1002.4
20260831150053 41 283 1.7 7.0 0.00 0.00 0.00 85 1002.5
20260831144543 43 278 2.6 9.6 0.00 0.00 0.00 86 1002.7
20260831143041 43 263 4.3 12.2 0.00 0.00 0.00 87 1002.9
20260831141521 43 254 3.5 7.8 0.00 0.00 0.00 88 1003.4
20260831140025 43 273 3.5 9.6 0.00 0.00 0.00 87 1003.5
20260831134524 44 270 7.0 14.8 0.00 0.00 0.00 88 1003.2
20260831133014 43 256 4.3 10.4 0.00 0.00 0.00 94 1003.3
20260831131512 44 242 1.7 9.6 0.00 0.00 0.00 94 1003.7
20260831130008 43 252 0.9 4.3 0.00 0.00 0.00 94 1003.7